Torna al catalogo

STARLINK-37651

AttivoComunicazioniVLEO
NORAD 69353·PAYLOAD·🇺🇸 United States

Lanciato Jun 4, 2026 da Cape Canaveral Space Force Station

Loading…

Prossimi Passaggi (prossime 24 ore)

TLE

AggiornatoSource: CelesTrak SupGP

Epoca: Sep 14, 2026, 23:03 UTC

1 69353C 26123A   26257.96090278 -.00048443  00000+0 -14312-2 0  2577
2 69353  53.1583 167.4272 0001131  79.6401 235.5196 15.34416991    10

Traccia STARLINK-37651 in tempo reale con AllMySat

Download on the App Store